Location: Newark
(37.3394°N, 6.0261°W)
Time: 16:32:29
(UTC+00:00)

OTV 5 (USA 277) - Pass Details

Date: 27 October 2019
Orbit: 310 x 324 km, 54.5° (Epoch: 17 October)

Event Time Altitude Azimuth Distance (km) Brightness Sun altitude
Rises 18:18:49 0° 197° (SSW) 2,039 ? -9.9°
Reaches altitude 10° 18:21:02 10° 180° (S) 1,217 ? -10.3°
Maximum altitude 18:23:10 21° 128° (SE) 788 ? -10.7°
Enters shadow 18:24:02 18° 100° (E) 877 ? -10.9°
